GSAT0214 (GALILEO 18)

Last updated on July 14, 2020, 5:23 a.m. UTC

1 41862U 16069D   20195.03127983  .00000050  00000-0  00000+0 0  9997
2 41862  54.6557 161.1301 0004186 285.2554  74.6670  1.70473211 22738
UTC
Height (km)
Latitude
Longitude
Inclination
Orbital Period
UTC large
Height (km)
Speed (km/s)
/
Latitude / Longitude
Inclination (degrees)
Orbital Period (minutes)
Azimuth
Elevation
Range (km)
Doppler Factor
iOS Compass Heading
iOS Angle

Next 30 passes for location: Hong Kong

Rise time Rise Azimuth (degrees) Set time Set Azimuth (degrees) Duration Max altitude (degrees)

No matching passes for this satellites